EUTELSAT KA-SAT 9A

Last updated on Nov. 15, 2019, 4:20 a.m. UTC

1 37258U 10069A   19318.34214951  .00000076  00000-0  00000+0 0  9994
2 37258   0.0600  83.1634 0003728 279.6087 182.5824  1.00270079 32682
UTC
Height (km)
Latitude
Longitude
Inclination
Orbital Period
UTC large
Height (km)
Speed (km/s)
/
Latitude / Longitude
Inclination (degrees)
Orbital Period (minutes)
Azimuth
Elevation
Range (km)
Doppler Factor
iOS Compass Heading
iOS Angle

Next 30 passes for location: Hong Kong

Rise time Rise Azimuth (degrees) Set time Set Azimuth (degrees) Duration Max altitude (degrees)

No matching passes for this satellites